Natchez, MS

6:43 PM CST on November 13, 2019 (GMT -0600)
Hardy-Anders-Adams County

Weather History for KHEZ - October, 2019

Change the Weather History Date:

Sunday, October 13, 2019

  Actual Average Record
Temperature  
Mean Temperature 60 °F -  
Max Temperature 71 °F 79 °F 90 °F (1931)
Min Temperature 50 °F 55 °F 37 °F (1977)
Degree Days  
Heating Degree Days 4    
Growing Degree Days 10 (Base 50)    
Moisture  
Dew Point 50 °F    
Average Humidity 68    
Maximum Humidity 89    
Minimum Humidity 45    
Precipitation  
Precipitation 0.00 in - - ()
Sea Level Pressure  
Sea Level Pressure 30.07 in    
Wind  
Wind Speed 3 mph (NE)    
Max Wind Speed 9 mph    
Max Gust Speed -    
Visibility 10 miles    
Events      
Averages and records for this station are not official NWS values.
T = Trace of Precipitation, MM = Missing Value Source: NWS Daily Summary

Daily Weather History Graph

Daily Weather History Graph

Search for Another Location

Airport or City:

Astronomy

Oct. 13, 2019 Rise Set
Actual Time 7:06 AM CDT 6:35 PM CDT
Civil Twilight 6:42 AM CDT 7:00 PM CDT
Nautical Twilight 6:14 AM CDT 7:28 PM CDT
Astronomical Twilight 5:45 AM CDT 7:56 PM CDT
Moon 6:54 PM CDT (10/13) 6:46 AM CDT (10/13)
Length of Visible Light 12h 17m
Length of Day
11h 28m
Full, 100% of the Moon is Illuminated
Oct 13
Full
Oct 13
Full
Oct 21
Last Quarter
Oct 27
New
Nov 4
First Quarter

Hourly Weather History & Observations

Time (CDT) Temp. Dew Point Humidity Pressure Visibility Wind Dir Wind Speed Gust Speed Precip Events Conditions
12:56 AM 52.0 °F 48.0 °F 86% 30.04 in 10.0 mi Calm Calm - N/A   Clear
1:56 AM 52.0 °F 48.0 °F 86% 30.04 in 10.0 mi Calm Calm - N/A   Clear
2:56 AM 51.1 °F 48.0 °F 89% 30.06 in 10.0 mi Calm Calm - N/A   Clear
4:56 AM 50.0 °F 46.9 °F 89% 30.07 in 10.0 mi Calm Calm - N/A   Partly Cloudy
5:56 AM 51.1 °F 48.0 °F 89% 30.08 in 10.0 mi North 3.5 mph - N/A   Overcast
6:56 AM 53.1 °F 46.9 °F 80% 30.08 in 10.0 mi Calm Calm - N/A   Overcast
7:56 AM 54.0 °F 48.0 °F 80% 30.09 in 10.0 mi Calm Calm - N/A   Overcast
8:56 AM 57.0 °F 46.0 °F 67% 30.09 in 10.0 mi East 3.5 mph - N/A   Overcast
9:56 AM 60.1 °F 48.0 °F 64% 30.11 in 10.0 mi Variable 3.5 mph - N/A   Overcast
10:56 AM 66.9 °F 46.0 °F 47% 30.09 in 10.0 mi East 3.5 mph - N/A   Clear
11:56 AM 66.9 °F 48.0 °F 51% 30.11 in 10.0 mi NNW 5.8 mph - N/A   Clear
12:56 PM 68.0 °F 48.0 °F 49% 30.09 in 10.0 mi NE 6.9 mph - N/A   Clear
1:56 PM 68.0 °F 48.9 °F 50% 30.07 in 10.0 mi NNW 5.8 mph - N/A   Clear
2:56 PM 69.1 °F 46.9 °F 45% 30.05 in 10.0 mi NNE 8.1 mph - N/A   Clear
3:56 PM 71.1 °F 48.9 °F 45% 30.04 in 10.0 mi NE 6.9 mph - N/A   Clear
4:56 PM 69.1 °F 52.0 °F 54% 30.04 in 10.0 mi North 9.2 mph - N/A   Clear
5:56 PM 66.0 °F 53.1 °F 63% 30.04 in 10.0 mi NNE 5.8 mph - N/A   Clear
6:56 PM 62.1 °F 54.0 °F 75% 30.05 in 10.0 mi NE 4.6 mph - N/A   Clear
7:56 PM 62.1 °F 53.1 °F 72% 30.06 in 10.0 mi Calm Calm - N/A   Clear
8:56 PM 62.1 °F 53.1 °F 72% 30.06 in 10.0 mi ESE 4.6 mph - N/A   Clear
9:56 PM 62.1 °F 53.1 °F 72% 30.07 in 10.0 mi SSE 3.5 mph - N/A   Clear
10:56 PM 62.1 °F 53.1 °F 72% 30.06 in 10.0 mi SSE 6.9 mph - N/A   Partly Cloudy
11:56 PM 63.0 °F 53.1 °F 70% 30.06 in 10.0 mi SE 4.6 mph - N/A   Clear